星链-34195 (STARLINK-34195)

导读

STARLINK-34195是美国SpaceX公司星链卫星互联网星座中的一员,于2025年5月24日由猎鹰九号火箭从加利福尼亚发射升空,成功进入预定近地轨道。作为星链组网卫星,它承担着为全球偏远、基础设施薄弱地区提供高速低延迟宽带互联网服务的使命,助力星链完成全球连续网络覆盖的组网目标。

基本信息
目录编号:
64142
目录名称:
STARLINK-34195
国际标识:
2025-111V
轨道中心:
EARTH
卫星名称:
星链-34195
卫星全名:
星链-34195 (STARLINK-34195)
卫星状态:
在轨 (已飞行386 天)
发射日期:
2025-05-24 UTC
国别 :
美国 (US)
星等 :
--
轨道信息
数据来源 国际轨道数据
星历时间: 2026-06-14T01:26:40+0800
8小时前
查看轨道信息
半长轴: 6861.075km
偏心率: 0.0001717
轨道倾角: 42.999°
近地点辐角 274.275°
升交点赤经 255.279°
平近点角 85.790°
近地点: 481.759km
远地点: 484.117km
周期: 94.264分钟
每日圈数: 15.276174
详细信息
固有亮度:
5
最大亮度:
2.5
卫星平台:
Starlink V1.0
覆盖范围:
全球
运营商:
太空探索技术公司
运营商所在国:
美国
制造商(研发单位):
太空探索技术公司
制造商所在国:
美国
使用方式:
暂无
卫星简介
Starlink 计划是 SpaceX 推出的全球卫星互联网项目,通过发射低轨道卫星,为全球尤其是偏远地区提供高速、低延迟的互联网服务。自 2019 年起,Starlink 已部署数千颗卫星,旨在缩小全球数字鸿沟,推动互联网普及。该项目还为军事、航空等行业提供通信支持,带来广泛经济效益。
2D轨道图
3D轨道图
轨道高度分析图
轨道倾角分析图
轨道综合分析图
查看轨道综合分析图